Theta_e
336 336 338 339 341 341 344 349 350 345 339 337 335 333 332 332 332 332 332 329 328 326 326 327 329 328 328 329 328 328 329 330
338 339 340 341 340 342 343 346 347 344 339 336 334 331 331 331 330 331 328 327 327 326 325 327 328 328 328 329 329 330 329 329
340 342 343 342 341 343 343 345 346 343 340 338 333 331 330 330 330 331 329 326 326 326 326 326 326 328 327 327 329 328 327 326
340 341 341 342 342 342 343 344 345 343 340 339 332 332 330 330 330 330 328 325 326 325 325 324 324 326 325 326 328 328 327 325
340 341 341 342 342 342 343 344 345 343 341 338 332 331 329 328 328 328 326 327 327 325 323 322 323 324 326 325 328 329 327 325
341 342 342 343 342 341 343 342 342 343 341 338 332 331 331 331 330 326 325 326 325 324 320 320 322 324 324 322 323 325 326 326
339 340 342 343 343 342 341 343 341 342 340 338 333 331 331 330 330 325 324 323 322 321 319 319 322 322 323 320 319 322 323 325
334 339 341 343 343 343 343 343 342 340 335 330 329 329 327 328 329 326 324 322 321 321 319 319 320 320 320 318 317 316 319 323
335 335 338 340 342 342 343 340 337 335 329 326 324 322 324 326 328 324 323 321 320 320 317 317 317 318 320 318 315 316 313 320
335 337 337 338 340 342 339 335 332 328 327 326 325 324 322 324 325 324 321 321 320 319 319 317 317 315 316 316 317 313 313 317
333 337 338 339 338 338 332 327 329 325 323 323 321 321 319 319 318 318 320 320 320 321 320 318 318 317 314 317 316 315 310 312
333 336 337 335 333 333 332 333 328 329 324 323 321 318 316 319 319 317 319 321 320 319 319 318 317 315 316 315 315 314 315 309
331 334 332 333 333 334 334 336 333 330 325 325 322 322 322 319 316 317 318 319 319 317 319 319 317 314 316 316 315 315 314 312
330 331 335 336 339 339 339 337 334 330 326 324 325 324 320 317 318 315 315 316 317 319 318 319 318 315 315 315 316 316 315 314
328 328 335 337 338 333 335 332 333 331 328 324 324 324 322 321 319 317 316 315 316 318 319 318 317 318 315 315 316 316 315 313
326 329 335 335 337 336 337 335 333 332 331 327 325 325 322 320 321 319 317 317 317 320 320 320 319 318 316 315 314 313 315 314
329 331 335 336 337 338 337 337 338 336 332 328 326 322 321 318 320 321 319 320 318 319 320 319 318 318 318 317 313 315 315 315
330 330 332 335 337 338 338 338 335 333 333 330 328 321 319 319 321 319 318 319 319 319 319 318 318 318 319 318 315 315 315 314
328 331 332 334 335 335 335 335 333 331 333 329 323 320 319 319 319 320 318 318 318 319 318 316 315 316 318 317 317 315 314 315
324 326 327 328 330 332 333 334 334 334 331 325 322 320 318 316 318 321 319 318 317 318 318 317 316 314 315 316 315 314 314 314
Wind_Speed
17 15 15 16 14 11 11 10 10 10 8 6 4 4 4 5 6 5 5 5 4 4 4 4 4 8 5 7 7 7 10 7
19 17 14 14 14 14 12 13 11 10 7 6 6 5 4 4 5 6 5 4 4 4 4 5 4 4 5 5 5 7 9 9
17 15 13 14 15 14 13 13 12 10 9 7 6 5 4 5 5 6 5 5 5 4 5 5 4 4 4 5 5 5 8 9
17 15 15 15 13 15 14 15 13 11 9 9 7 5 6 5 4 4 6 5 4 5 5 5 5 4 4 3 4 5 6 6
19 18 15 15 12 12 13 13 12 11 8 8 6 6 5 5 6 7 6 6 6 5 5 4 4 4 4 4 5 4 5 5
12 10 10 10 9 11 12 11 10 8 6 5 4 5 4 4 4 6 7 8 6 5 4 4 3 3 3 4 3 4 4 4
10 10 11 11 10 11 11 10 9 8 5 3 2 4 3 5 3 4 7 8 6 5 4 4 2 3 3 4 4 2 4 3
11 12 11 11 11 11 9 9 10 9 6 5 4 3 3 4 0 2 7 6 6 5 5 4 3 3 4 4 5 4 2 2
9 14 14 13 13 13 13 12 9 7 5 4 3 2 2 2 2 2 4 6 6 6 4 4 4 4 3 4 4 5 4 2
11 13 13 12 12 12 13 13 13 10 4 2 3 3 1 2 1 1 4 5 5 6 5 4 4 4 4 3 3 3 3 2
10 12 13 12 12 13 16 17 15 4 13 6 4 5 2 2 3 4 4 6 5 5 5 4 4 2 4 2 3 2 3 3
5 8 11 12 14 16 19 21 21 20 17 10 13 8 6 5 6 4 4 5 6 6 6 4 4 3 4 3 3 3 1 5
9 10 10 13 16 17 18 19 13 9 16 12 10 10 5 4 6 9 6 6 6 6 5 5 4 3 4 4 4 4 3 2
6 5 10 11 12 11 12 13 8 9 11 11 13 14 11 6 8 9 7 7 6 6 6 4 4 4 4 4 5 5 4 4
4 7 9 9 7 4 8 6 8 9 11 13 13 12 12 12 12 9 10 8 7 8 6 5 4 5 4 5 5 5 4 4
6 8 7 6 6 5 10 11 10 10 10 12 12 12 8 7 10 9 8 8 8 11 8 7 7 6 5 5 5 4 4 4
5 7 8 6 7 7 9 10 11 10 12 11 12 9 10 8 10 10 9 8 6 9 10 8 7 7 7 6 5 6 5 4
4 3 5 6 7 6 6 7 7 7 9 9 9 9 9 8 10 11 10 9 10 10 10 8 8 8 7 7 5 6 6 5
5 4 0 3 4 5 5 5 6 7 8 8 9 9 9 10 10 11 12 11 12 11 11 9 9 8 9 7 8 6 7 6
6 7 6 7 7 6 5 5 6 5 7 9 9 8 8 8 8 11 11 11 10 11 12 11 10 9 8 10 10 8 9 8
Wind_Direction
174 183 184 183 184 187 187 185 183 178 155 153 144 139 129 120 116 114 96 103 89 79 76 64 71 78 78 75 69 52 47 42
182 187 182 181 185 191 190 196 189 185 161 168 150 151 141 133 119 124 121 122 94 71 75 72 65 70 81 75 75 66 61 57
194 187 184 185 190 193 194 196 194 185 176 163 158 147 146 131 144 130 139 128 117 105 97 85 72 74 80 90 89 79 73 64
187 190 185 196 194 193 195 200 195 188 183 171 159 151 141 135 134 134 130 121 117 116 112 100 89 71 86 110 110 93 82 77
195 194 188 195 199 192 198 201 201 190 192 175 161 149 148 146 132 135 123 120 118 118 109 104 95 87 107 112 111 118 106 90
203 203 203 206 198 196 194 198 198 195 191 186 171 151 147 133 137 135 129 121 122 109 103 76 68 103 126 109 116 125 126 119
208 210 208 210 200 193 194 195 194 188 180 167 137 121 128 110 157 144 133 126 124 110 95 90 102 132 114 119 104 111 136 151
197 205 210 200 191 190 186 183 179 161 134 102 59 51 57 57 92 146 139 126 121 113 99 90 111 127 124 103 97 77 85 167
179 196 198 191 179 169 165 150 145 143 120 117 120 121 72 31 313 144 134 127 125 113 97 94 86 94 100 126 116 87 94 165
179 178 186 185 173 155 144 126 103 81 51 122 144 162 152 134 236 217 143 137 135 111 112 95 72 99 102 133 133 128 86 166
197 169 171 159 150 141 120 113 114 136 154 169 122 102 78 138 175 197 171 152 132 118 100 90 97 88 91 93 96 133 140 107
142 152 156 141 141 140 145 152 164 188 180 182 167 155 190 182 183 177 169 162 148 136 118 122 92 80 96 97 114 105 146 113
135 154 142 149 158 164 167 169 186 187 161 172 183 175 203 158 167 161 164 155 161 151 141 127 115 106 105 102 121 130 119 93
104 141 167 177 182 181 187 174 190 172 164 164 196 177 170 159 180 169 171 170 164 162 146 154 137 134 162 131 111 104 90 94
150 185 196 197 202 171 211 178 186 184 173 180 184 184 187 188 179 181 170 175 172 169 167 181 188 180 171 158 149 137 130 133
204 218 216 233 211 263 212 207 198 194 188 191 189 183 186 184 190 183 185 183 181 166 173 201 199 199 177 166 166 145 130 151
210 235 238 264 260 272 245 231 234 213 197 194 196 181 183 176 184 194 182 177 178 180 171 197 202 212 199 185 191 180 184 181
129 203 251 272 278 286 256 251 245 214 214 207 201 184 178 177 189 193 188 184 185 184 181 189 207 220 215 211 194 189 200 192
79 94 143 291 295 295 280 249 231 217 213 210 189 184 172 183 198 196 194 187 187 188 188 185 200 217 218 217 232 203 212 207
60 53 36 20 357 333 313 297 277 249 209 194 186 179 176 187 193 202 198 194 193 196 191 183 198 212 223 220 224 221 216 219